Location: ?????
(55.8833°N, 37.6500°E)
Time: 07:40:23
(UTC+00:00)

DMSP B5D1-3 - Pass Details

Date: 27 February 2020
Orbit: 768 x 780 km, 98.5° (Epoch: 30 March)

Event Time Altitude Azimuth Distance (km) Brightness Sun altitude
Rises 16:30:13 0° 16° (NNE) 3,270 7.7 -13.6°
Reaches altitude 10° 16:32:33 10° 18° (NNE) 2,340 6.9 -14.0°
Maximum altitude 16:37:44 81° 106° (ESE) 797 4.4 -14.7°
Drops below altitude 10° 16:42:53 10° 194° (SSW) 2,330 7.1 -15.4°
Sets 16:45:12 0° 195° (SSW) 3,254 7.8 -15.7°
